Regional Weather Roundup
Issued by NWS

Home | Current Version | Previous Version | Text Only | Print | Product List | Glossary Off
Versions: 1 2 3 4 5 6 7 8 9 10 11 12 13 14 15 16 17 18 19 20 21 22 23 24 25 26 27 28 29 30 31 32 33 34 35 36 37 38 39 40 41 42 43 44 45 46 47 48 49 50

000
ASUS43 KBIS 100502
RWRND

NORTH DAKOTA REGIONAL WEATHER ROUNDUP
NATIONAL WEATHER SERVICE BISMARCK ND
1100 PM CST TUE FEB 09 2016

NOTE: "FAIR" INDICATES FEW OR NO CLOUDS BELOW 12,000 FEET WITH NO
SIGNIFICANT WEATHER AND/OR OBSTRUCTIONS TO VISIBILITY.


NDZ001>003-009>011-017-100600-
NORTHWEST NORTH DAKOTA

CITY           SKY/WX    TMP DP  RH WIND       PRES   REMARKS
WILLISTON      PTCLDY    26  22  84 CALM      29.96F
MINOT          LGT SNOW  20  13  74 E13       30.03F WCI   7
MINOT AFB      LGT SNOW  18  16  93 SE14      30.02F FOG     WCI   4
$$

NDZ018>021-031>035-040>046-100600-
SOUTHWEST NORTH DAKOTA

CITY           SKY/WX    TMP DP  RH WIND       PRES   REMARKS
BISMARCK       CLOUDY    32  21  64 E9        30.03F
DICKINSON      CLOUDY    27  21  78 S12       29.94F WCI  17
GARRISON         N/A     25  20  81 E14       30.00F WCI  13
HETTINGER ARPT CLOUDY    27  20  75 CALM      29.99F
$$

NDZ004>008-012>016-024-026-027-054-100600-
NORTHEAST NORTH DAKOTA

CITY           SKY/WX    TMP DP  RH WIND       PRES   REMARKS
GRAND FORKS    MOCLDY     5  -2  72 N9        30.23F WCI  -9
GRND FRKS AFB  PTCLDY     3  -3  76 NE6       30.22F WCI  -8
DEVILS LAKE    CLOUDY     9   4  80 E12       30.14F WCI  -6
$$

NDZ022-023-025-028>030-036>039-047>053-100600-
SOUTHEAST NORTH DAKOTA

CITY           SKY/WX    TMP DP  RH WIND       PRES   REMARKS
FARGO          CLOUDY     4  -2  76 N7        30.21S WCI  -8
JAMESTOWN      CLOUDY    13   6  74 E12       30.12S WCI  -1
$$




USA.gov is the U.S. government's official web portal to all federal, state and local government web resources and services.